Regional Weather Roundup
Issued by NWS Midland/Odessa, TX

Skip options and go directly to product.
Home | Oldest Version | Previous Version | Current Version | All | Text Only | Save Text | Print | Product List | Glossary On

Skip product version selection by date and time.   
072
ASUS44 KMAF 242310
RWRMAF
MIDLAND AREA WEATHER ROUNDUP
NATIONAL WEATHER SERVICE MIDLAND TX
600 PM CDT TUE MAY 24 2016

...IN SOUTHWEST TEXAS AND SOUTHEAST NEW MEXICO...

CITY           SKY/WX    TMP DP  RH WIND       PRES   REMARKS
ALPINE         CLOUDY    87  24  10 SW13      30.07S
ANDREWS        FAIR      91  25   9 NW6       29.89S
ARTESIA        SUNNY     93  21   7 SW22G29   29.86F
BIG SPRING     CLOUDY    88  58  36 SE24      29.86F
CARLSBAD       PTSUNNY   93  13   5 W25G31    29.85F
DRYDEN         NOT AVBL
FORT STOCKTON  CLOUDY    95  18   6 SW17G24   29.88F
GUAD PASS      NOT AVBL
HOBBS          SUNNY     88  18   7 SW12G22   29.92F
MARFA          CLOUDY    84  25  11 S13       30.05F
MIDLAND AIRPK  MOSUNNY   97  14   5 SW13G18   29.86S
MIDLAND INTL   CLOUDY    97  15   5 SW20      29.86S
ODESSA         CLOUDY    97  16   5 SW16      29.87F
PECOS          PTSUNNY   96  13   5 SW10      29.84S
PRESIDIO       FAIR      93  21   7 SW10      29.90S
SEMINOLE       SUNNY     91  26   9 W10       29.90F
SNYDER           N/A     87  67  50 SE16      29.86F
WINK           PTSUNNY   98  17   5 MISG      29.83F
$$
...OTHER STATIONS IN TEXAS...

CITY           SKY/WX    TMP DP  RH WIND       PRES   REMARKS
ABILENE        MOSUNNY   84  71  65 S17G25    29.88F
AMARILLO       CLOUDY    85  61  44 S20G32    29.82F
AUSTIN         CLOUDY    85  74  69 S12       29.91R
BROWNSVILLE    SUNNY     88  75  65 SE17G24   29.87S
CORPUS CHRISTI PTSUNNY   84  76  76 SE16      29.89F
DALLAS FTW     PTSUNNY   85  71  63 S17G24    29.89S
DEL RIO        CLOUDY    88  74  63 SE16      29.85S
EL PASO        MOSUNNY   90   8   4 SW21G30   29.93F
HOUSTON INT    PTSUNNY   82  74  76 SE22G28   29.95F
LUBBOCK        CLOUDY    86  65  49 SE20      29.86F
SAN ANGELO     CLOUDY    85  68  56 S9        29.88S
SAN ANTONIO    CLOUDY    84  75  74 SE13      29.91F
WACO           CLOUDY    86  72  62 S13       29.90F
WICHITA FALLS  NOT AVBL
$$
...OTHER LOCATIONS IN NEW MEXICO...

CITY           SKY/WX    TMP DP  RH WIND       PRES   REMARKS
ALAMAGORDO     SUNNY     86  18   8 SW13G20   29.94F
ALBUQUERQUE    MOSUNNY   82  12   7 SW18      29.91F
CANNON AFB     SUNNY     89  22   9 SW18G24   29.88F
CLOVIS         SUNNY     88  28  11 SW21      29.88F
HOLLOMAN AFB   SUNNY     88  13   6 SW21G26   29.92F
ROSWELL        SUNNY     95  15   5 W16G38    29.83F
RUIDOSO          N/A     73  18  12 SW26G33   30.11S
SANTA FE       SUNNY     78  15   9 SW18G24   29.98F
TRUTH OR CONSE SUNNY     84  12   6 SW16G24   29.93S
TUCUMCARI      SUNNY     92  13   5 SW22G33   29.81F
$$

USA.gov is the U.S. government's official web portal to all federal, state and local government web resources and services.